Location: �terpigny
(49.8910°N, 2.9249°E)
Time: 15:31:24
(UTC+00:00)

EO-88 - Pass Details

Date: 28 June 2022
Orbit: 453 x 461 km, 97.3° (Epoch: 14 August)

Event Time Altitude Azimuth Distance (km) Brightness Sun altitude
Exits shadow 21:57:46 - 208° (SSW) 1,822 ? -12.6°
Reaches altitude 10° 21:58:20 10° 213° (SSW) 1,627 ? -12.7°
Maximum altitude 22:01:08 22° 266° (W) 1,070 ? -12.9°
Drops below altitude 10° 22:03:57 10° 320° (NW) 1,638 ? -13.1°
Sets 22:06:21 0° 336° (NNW) 2,520 ? -13.2°
